User: anonymous   Login
Location: Unspecified
(0.0000°N, 0.0000°E)
Time: 20:13:29
(UTC+01:00)
Language:

CZ-4B DEB - Orbit

View from above orbital plane
View from above orbital plane
View from above satellite
View from above satellite

Ground track
Ground track

The orbit data is extracted from the following two-line orbital elements,

1 33411U 08053D   15031.15545085  .00028037  00000-0  13216-2 0  3990
2 33411 097.4987 052.5246 0008885 180.8016 179.3206 15.19423066342795
Epoch (UTC): 31 January 2015 03:43:50
Eccentricity: 0.0008885
inclination: 97.4987°
perigee height: 501 km
apogee height: 514 km
right ascension of ascending node: 52.5246°
argument of perigee: 180.8016°
revolutions per day: 15.19423066
mean anomaly at epoch: 179.3206°
orbit number at epoch: 34279

The dashed part of the orbit path shows where the satellite is in the earth's shadow,  

DLR